Building Permits in Toronto


· Building Permits

Permit Num Address Application Date Permit Type
07 230798 BLD 52 GLENDONWYNNE RD 2017/06/02 Small Residential Projects
14 137016 BLD 44 ACRE HEIGHTS CRES 2017/06/02 Small Residential Projects
16 143921 BLD 239 CARMICHAEL AVE 2017/06/02 New Houses
16 227144 BLD 107 ALAMOSA DR 2017/06/02 Small Residential Projects
17 171979 DST 560 PALMERSTON AVE 2017/06/02 Designated Structures
17 171984 DRN 74 SANTA BARBARA RD 2017/06/02 Drain and Site Service
17 171991 BLD 191 BEVERLEY ST 2017/06/02 Small Residential Projects
17 171998 PSA 57-61 MILVAN DR 2017/06/02 Plumbing(PS)
17 172005 DRN 2 FALWYN AVE 2017/06/02 Drain and Site Service
17 172009 STS 47 ROSSBURN DR 2017/06/02 Issued: 2017/06/02 Drain and Site Service
17 172037 BLD 46 PARKDALE RD 2017/06/02 Small Residential Projects
17 172047 TPS 15 E WELLESLEY ST 2017/06/02 Temporary Structures
17 172058 DST 115 BLACK CREEK DR 2017/06/02 Designated Structures
17 172060 BLD 75 INNISWOOD DR 2017/06/02 Small Residential Projects
17 172067 BLD 26 W GLENADEN AVE 2017/06/02 Small Residential Projects
17 172091 BLD 399 SPADINA AVE 2017/06/02 Building Additions/Alterations
17 172107 BLD 220 HIGH PARK AVE 2017/06/02 Small Residential Projects
17 172119 BLD 76 RAMEAU DR 2017/06/02 Small Residential Projects
17 172129 BLD 792 PALMERSTON AVE 2017/06/02 Small Residential Projects
17 172150 DRN 31 SWORDBILL DR 2017/06/02 Drain and Site Service
17 172152 FSU 109 OSSINGTON AVE 2017/06/02 Fire/Security Upgrade
17 172174 PSA 57 AMROTH AVE 2017/06/02 Plumbing(PS)
17 172186 BLD 259 DELAWARE AVE 2017/06/02 Small Residential Projects
17 172188 BLD 9 ATKINS AVE 2017/06/02 Small Residential Projects
17 172189 DRN 66 RAYSIDE DR 2017/06/02 Issued: 2017/06/02 Drain and Site Service
17 172205 BLD 30 ABITIBI AVE 2017/06/02 New Houses
17 172208 BLD 947 DUPONT ST 2017/06/02 Small Residential Projects
17 172213 BLD 134 NORTHWOOD DR 2017/06/02 New Houses
17 172217 BLD 142 UPPER CANADA DR 2017/06/02 Small Residential Projects
17 172236 DRN 106 SANDOWN AVE 2017/06/02 Issued: 2017/06/02 Drain and Site Service
17 172238 BLD 21 WIGAN CRES 2017/06/02 Small Residential Projects
17 172268 BLD 47 ALBERTUS AVE 2017/06/02 Small Residential Projects
17 172282 BLD 122 RIDLEY BLVD 2017/06/02 New Houses
17 172301 BLD 160 THE WESTWAY 2017/06/02 Building Additions/Alterations
17 172303 BLD 43 LINDNER ST 2017/06/02 Small Residential Projects
17 172310 BLD 301 WYCHWOOD AVE 2017/06/02 New Houses
17 172331 DRN 40 ARCADIAN CRCL 2017/06/02 Issued: 2017/06/02 Drain and Site Service
17 172348 BLD 11 LLOYD MANOR RD 2017/06/02 Small Residential Projects
17 172356 DRN 15 TERNHILL CRES 2017/06/02 Drain and Site Service
17 172367 BLD 36 DEWHURST BLVD 2017/06/02 Small Residential Projects
17 172374 DRN 43 BOYD AVE 2017/06/02 Issued: 2017/06/02 Drain and Site Service
17 172402 DEM 22 ALDER RD 2017/06/02 Demolition Folder (DM)
17 172427 BLD 134 BROOKSIDE DR 2017/06/02 New Houses
17 172439 BLD 977 B ALBION RD 2017/06/02 Building Additions/Alterations
17 172448 BLD 333 MILLWOOD RD 2017/06/02 Small Residential Projects
17 172465 DRN 124 PRICEFIELD RD 2017/06/02 Issued: 2017/06/02 Drain and Site Service
17 172473 BLD 72 ANTIOCH DR 2017/06/02 Small Residential Projects
17 172492 BLD 25 MARLEE AVE 2017/06/02 Small Residential Projects
17 172512 BLD 34 NEWMAN AVE 2017/06/02 Small Residential Projects
17 172515 BLD 94 KINGS PARK BLVD 2017/06/02 Small Residential Projects
17 172528 BLD 105 WESTMOUNT AVE 2017/06/02 Small Residential Projects
17 172536 DRN 58 KILPATRICK DR 2017/06/02 Issued: 2017/06/02 Drain and Site Service
17 172544 BLD 46 REID MANOR 2017/06/02 New Houses
17 172568 BLD 14 OMAHA AVE 2017/06/02 Small Residential Projects
13 157264 BLD 3920 W BLOOR ST 2017/06/01 New Houses
15 161288 BLD 140 COLONEL DANFORTH TRL 2017/06/01 New Houses
16 189754 BLD 31 KILBARRY RD 2017/06/01 Small Residential Projects
16 234088 BLD 18 HUMEWOOD GDNS 2017/06/01 Small Residential Projects
16 240750 5285 YONGE ST 2017/06/01 Fire/Security Upgrade
16 252128 BLD 176 HUMEWOOD DR 2017/06/01 Small Residential Projects
17 157674 BLD 166 LAWLOR AVE 2017/06/01 Small Residential Projects
17 170959 DRN 519 JANE ST 2017/06/01 Issued: 2017/06/01 Drain and Site Service
17 170961 BLD 44 WANDA RD 2017/06/01 Small Residential Projects
17 170967 BLD 66 LYNMONT RD 2017/06/01 Small Residential Projects
17 170980 DRN 476 BROCK AVE 2017/06/01 Issued: 2017/06/01 Drain and Site Service
17 170985 DRN 64 MCGILLIVRAY AVE 2017/06/01 Issued: 2017/06/01 Drain and Site Service
17 171000 DST 2471 W ST CLAIR AVE 2017/06/01 Designated Structures
17 171033 DST 467 PARLIAMENT ST 2017/06/01 Designated Structures
17 171037 DRN 31 MC KENZIE AVE 2017/06/01 Issued: 2017/06/02 Drain and Site Service
17 171057 DRN 40 EVERETT CRES 2017/06/01 Issued: 2017/06/01 Drain and Site Service
17 171078 BLD 21 DURRINGTON CRES 2017/06/01 Small Residential Projects
17 171082 DRN 4 BURNLEY AVE 2017/06/01 Issued: 2017/06/01 Drain and Site Service
17 171087 DRN 221 FAIRLAWN AVE 2017/06/01 Issued: 2017/06/01 Drain and Site Service
17 171089 DRN 581 WILLARD AVE 2017/06/01 Issued: 2017/06/01 Drain and Site Service
17 171091 BLD 255 BLYTHWOOD RD 2017/06/01 Small Residential Projects
17 171143 DEM 144 BALSAM AVE 2017/06/01 Demolition Folder (DM)
17 171158 DRN 29 WALTONICE RD 2017/06/01 Issued: 2017/06/01 Drain and Site Service
17 171192 BLD 358 SAMMON AVE 2017/06/01 Small Residential Projects
17 171193 BLD 89 CAITHNESS AVE 2017/06/01 Small Residential Projects
17 171252 BLD 7 CLAREVILLE CRES 2017/06/01 Small Residential Projects
17 171262 DRN 65 WARREN CRES 2017/06/01 Issued: 2017/06/01 Drain and Site Service
17 171278 BLD 27 GLEN OAK DR 2017/06/01 Small Residential Projects
17 171306 DRN 79 BEACONSFIELD AVE 2017/06/01 Issued: 2017/06/01 Drain and Site Service
17 171315 BLD 85 KINGSWAY CRES 2017/06/01 Small Residential Projects
17 171360 BLD 35 WEBB AVE 2017/06/01 Small Residential Projects
17 171371 DRN 62 FULWELL CRES 2017/06/01 Issued: 2017/06/01 Drain and Site Service
17 171400 BLD 114 THICKETWOOD DR 2017/06/01 Small Residential Projects
17 171401 BLD 32 MEDALIST RD 2017/06/01 Small Residential Projects
17 171408 BLD 8 GIVINS ST 2017/06/01 Small Residential Projects
17 171449 DRN 33 LAVINIA AVE 2017/06/01 Issued: 2017/06/01 Drain and Site Service
17 171504 BLD 81 MIMICO AVE 2017/06/01 Small Residential Projects
17 171512 PSA 1260 MARTIN GROVE RD 2017/06/01 Plumbing(PS)
17 171518 BLD 205 BURNDALE AVE 2017/06/01 New Houses
17 171523 BLD 112 BELLEFAIR AVE 2017/06/01 Small Residential Projects
17 171529 BLD 48 MURISON BLVD 2017/06/01 Small Residential Projects
17 171554 BLD 153 BROADLANDS BLVD 2017/06/01 Small Residential Projects
17 171580 PSA 1549 BAYVIEW AVE 2017/06/01 Plumbing(PS)
17 171606 BLD 66 KING GEORGES RD 2017/06/01 Small Residential Projects
17 171622 BLD 161 LEE AVE 2017/06/01 Issued: 2017/06/02 Small Residential Projects
17 171665 BLD 17 ELMSDALE RD 2017/06/01 Small Residential Projects